Location: Korczew
(51.3586°N, 19.4491°E)
Time: 22:48:22
(UTC+00:00)

NOSS 2-1 (C) - Pass Details

Date: 19 May 2025
Orbit: 378 x 1699 km, 63.3° (Epoch: 16 June)

Event Time Altitude Azimuth Distance (km) Brightness Sun altitude
Exits shadow 22:55:51 15° 266° (W) 1,238 5.0 -18.6°
Maximum altitude 22:58:02 30° 324° (NW) 724 4.4 -18.5°
Drops below altitude 10° 23:00:45 10° 30° (NNE) 1,405 6.4 -18.5°
Sets 23:02:53 0° 41° (NE) 2,283 7.4 -18.5°
